OBJECT N, 61906

Orbit data source: Space-Track

You're viewing an Uncataloged Satellite

Recently launched and/or uncataloged satellites may have evolving metadata. Metadata may include but not limited to: Owner, Maufacturer, Bus, Motor, and Mission.

OBJECT N, 61906 is a Chinese satellite in SSO that was launched on Mon, 11 Nov 2024 UTC via a LIJIAN-1 launch vehicle from the Jiuquan Satellite Launch Center, China (JSC). Unknown objects in Earth's orbit typically refer to objects detected orbiting the Earth but have not yet been identified or cataloged. These objects could be anything from previously untracked satellites, spent rocket stages, debris from satellite collisions, or even natural meteoroids temporarily captured by Earth's gravity.

Loading next visibility...
Identifier
61906, 2024-205N
Orbit
SSO
Country
Flag of CNCN / PRC
Related business
None
Manufacturer
Unknown
Mission
Operational Commercial Imaging
Bus & Motor
Unknown
Mass
Unknown
Launch date (UTC)
2024-11-11 (1 year ago)
Launch vehicle
LIJIAN-1
Launch site
Jiuquan Satellite Launch Center, China (JSC)
Object type
Unknown
Shape & HBR
Box, 0.1 m
Radar Cross Section
0.035 m², Medium (>0.1 m² and < 1m²)

Expand to show TLE details & history
Last TLE update: 14 hours ago

TLE from 14 hours ago
0 OBJECT N
1 61906U 24205N   25306.54362269  .00018747  00000-0  69147-3 0  9995
2 61906  97.4399  21.3428 0012155 122.6316 237.6098 15.27767851 54159
Epoch: 2025-11-02T13:02Z
TLE epoch observation values (Epoch: 2025-11-02T13:02:49.000Z)
Latitude
-0.00002°
Longitude
143.5808°
Altitude
490.062 km
Speed
7.617 km/s
True Right ascension
01h 25m 22s
True Declination
0° 00' 00"
Sunlit
Object was in full shadow at epoch
Visualization orbit readout
Latitude
Unknown
Longitude
Unknown
Altitude
Unknown
Speed
Unknown
Apparent Right ascension
Unknown
Apparent Declination
Unknown
Sunlit
N/A
Visualization observer readout
Local Sidereal Time
23:21:32
Azimuth
Unknown
Elevation
Unknown
Doppler factor
Unknown
Orbital elements
Apogee altitude
487.779 km
Perigee altitude
471.108 km
Semi-major axis
6,857.581 km
Eccentricity
0.00122
Inclination
97.4399°
RAAN
21.3428°
Arg. of periapsis
122.6316°
True anomaly
237.49228°
Mean anomaly
237.6098°
Eccentric anomaly
237.55103°
Mean motion
3.82197 °/min
Orbital period
94.19 mins
BSTAR
0.00069147
Loading maneuver chart data...
Computing Atmospheric mass density...
Loading historical data...
Loading historical data...
Loading historical data...
Loading historical data...
Loading historical data...
Loading historical data...
Loading historical data...

Documentation

Showing up to 5 results
|